San Antonio, TX

4:29 PM CST on January 18, 2018 (GMT -0600)
San Antonio International

Weather History for KSAT - October, 2012

Change the Weather History Date:

Tuesday, October 30, 2012

  Actual Average Record
Temperature  
Mean Temperature 59 °F 67 °F  
Max Temperature 75 °F 78 °F 90 °F (1947)
Min Temperature 43 °F 56 °F 32 °F (1917)
Degree Days  
Heating Degree Days 6 2  
Month to date heating degree days 55 26  
Since 1 July heating degree days 55 28  
Cooling Degree Days 0 4  
Month to date cooling degree days 238 215  
Year to date cooling degree days 3478 3049  
Growing Degree Days 9 (Base 50)    
Moisture  
Dew Point 49 °F    
Average Humidity 69    
Maximum Humidity 92    
Minimum Humidity 46    
Precipitation  
Precipitation 0.00 in 0.12 in 2.47 in (1911)
Month to date precipitation 2.40 4.00  
Year to date precipitation 38.76 27.97  
Snow  
Snow 0.00 in - - ()
Month to date snowfall 0.0  
Since 1 July snowfall 0.0  
Since 1 September snowfall 0.0  
Snow Depth 0.00 in    
Sea Level Pressure  
Sea Level Pressure 30.04 in    
Wind  
Wind Speed 4 mph (WSW)    
Max Wind Speed 12 mph    
Max Gust Speed 17 mph    
Visibility 10 miles    
Events      
T = Trace of Precipitation, MM = Missing Value Source: NWS Daily Summary

Daily Weather History Graph

Daily Weather History Graph

Search for Another Location

Airport or City:

Trip Planner

Search our weather history database for the weather conditions in past years. The results will help you decide how hot, cold, wet, or windy it might be!

Date:

Astronomy

Oct. 30, 2012 Rise Set
Actual Time 7:46 AM CDT 6:48 PM CDT
Civil Twilight 7:21 AM CDT 7:13 PM CDT
Nautical Twilight 6:53 AM CDT 7:41 PM CDT
Astronomical Twilight 6:25 AM CDT 8:09 PM CDT
Moon 7:25 PM CDT (10/30) 8:28 AM CDT (10/30)
Length of Visible Light 11h 51m
Length of Day
11h 02m
Full, 99% of the Moon is Illuminated
Oct 30
Full
Nov 6
Last Quarter
Nov 13
New
Nov 20
First Quarter
Nov 28
Full

Hourly Weather History & Observations

Time (CDT) Temp. Windchill Dew Point Humidity Pressure Visibility Wind Dir Wind Speed Gust Speed Precip Events Conditions
12:53 AM 50.0 °F - 44.1 °F 80% 30.11 in 10.0 mi Calm Calm - N/A   Clear
1:53 AM 48.0 °F - 44.1 °F 86% 30.10 in 10.0 mi NNW 3.5 mph - N/A   Clear
2:53 AM 46.0 °F 43.9 °F 43.0 °F 89% 30.09 in 10.0 mi WNW 4.6 mph - N/A   Clear
3:53 AM 46.0 °F - 43.0 °F 89% 30.08 in 10.0 mi Calm Calm - N/A   Clear
4:53 AM 45.0 °F 43.5 °F 42.1 °F 90% 30.06 in 10.0 mi NW 3.5 mph - N/A   Clear
5:53 AM 45.0 °F 42.6 °F 42.1 °F 90% 30.06 in 10.0 mi WNW 4.6 mph - N/A   Clear
6:53 AM 45.0 °F 41.8 °F 42.1 °F 90% 30.07 in 10.0 mi WNW 5.8 mph - N/A   Clear
7:53 AM 45.0 °F 43.5 °F 42.1 °F 90% 30.08 in 10.0 mi WNW 3.5 mph - N/A   Clear
8:53 AM 51.1 °F - 45.0 °F 80% 30.08 in 10.0 mi Calm Calm - N/A   Clear
9:53 AM 59.0 °F - 46.9 °F 64% 30.09 in 10.0 mi Calm Calm - N/A   Clear
10:53 AM 63.0 °F - 48.9 °F 60% 30.09 in 10.0 mi SSE 3.5 mph - N/A   Clear
11:53 AM 68.0 °F - 53.1 °F 59% 30.07 in 10.0 mi Variable 6.9 mph - N/A   Clear
12:53 PM 71.1 °F - 55.0 °F 57% 30.05 in 10.0 mi South 9.2 mph - N/A   Partly Cloudy
1:53 PM 73.9 °F - 55.0 °F 52% 30.02 in 10.0 mi Variable 4.6 mph - N/A   Partly Cloudy
2:53 PM 73.9 °F - 54.0 °F 50% 29.98 in 10.0 mi SSW 9.2 mph - N/A   Clear
3:53 PM 75.0 °F - 55.0 °F 50% 29.96 in 10.0 mi South 10.4 mph - N/A   Clear
4:53 PM 75.0 °F - 54.0 °F 48% 29.95 in 10.0 mi SSE 9.2 mph - N/A   Clear
5:53 PM 73.9 °F - 54.0 °F 50% 29.94 in 10.0 mi South 5.8 mph - N/A   Clear
6:53 PM 71.6 °F - 53.6 °F 53% 29.99 in 10.0 mi South 3.5 mph - N/A   Clear
7:53 PM 66.0 °F - 54.0 °F 65% 29.97 in 10.0 mi Calm Calm - N/A   Clear
8:53 PM 64.9 °F - 55.0 °F 70% 29.98 in 10.0 mi Calm Calm - N/A   Clear
9:53 PM 63.0 °F - 55.9 °F 78% 29.99 in 10.0 mi NW 3.5 mph - N/A   Clear
10:53 PM 57.9 °F - 54.0 °F 87% 30.01 in 10.0 mi Calm Calm - N/A   Clear
11:53 PM 57.0 °F - 54.0 °F 89% 30.00 in 10.0 mi Calm Calm - N/A   Clear